{"data":{"norad_id":53166,"epoch":"2026-05-25T06:00:02.000160Z","epoch_age_seconds":60226,"freshness":"FRESH","line1":"1 53166U 22083AL  26145.25002315  .00114709  00000+0  25626-2 0  9996","line2":"2 53166  53.2179 173.4013 0000892  81.8686 206.4353 15.42666073  5856","mean_motion":15.42666073,"eccentricity":8.92e-5,"inclination_deg":53.2179,"raan_deg":173.4013,"arg_perigee_deg":81.8686,"mean_anomaly_deg":206.4353,"bstar":0.0025626,"rev_number":585,"period_min":93.344893311853,"perigee_km":437.63647807188,"apogee_km":438.85252053135,"semimajor_km":6816.3814993016,"source":"CELESTRAK","updated_at":"2026-05-25T13:38:17.322884Z"}}